RH
12 12 12 11 11 10 8 7 7 7 7 6 7 8 8 10 16 18 24 26 29 31 31 29 34 40 44 44 39 42 45 51 52 52 55 55 54 53 50 46 47 46 42 40 39 38 40
15 14 14 13 13 12 12 10 9 7 7 6 6 6 7 7 9 15 17 23 26 29 31 29 32 37 39 41 40 43 45 46 50 54 54 56 56 56 52 50 49 48 47 45 45 44 43
10 9 8 8 8 8 8 9 9 9 8 6 6 6 6 6 7 8 15 16 23 25 29 31 29 34 36 38 41 43 46 45 50 51 52 55 55 54 52 53 53 51 48 45 43 46 48
7 7 7 7 6 6 6 6 5 5 7 8 6 5 5 5 6 7 7 14 16 23 24 30 31 30 33 36 41 40 44 47 49 50 52 54 56 55 54 52 48 47 45 44 43 47 51
7 8 8 8 8 8 7 7 6 5 4 4 6 6 5 5 5 6 7 6 13 16 22 22 29 31 32 38 38 42 44 45 47 48 49 53 53 54 51 50 47 45 42 41 42 43 46
9 10 11 11 11 10 10 9 8 7 5 4 4 6 5 4 4 5 6 9 8 11 15 20 20 29 29 35 40 42 42 44 45 45 49 50 50 50 45 47 48 45 42 39 42 42 44
13 13 13 13 13 13 13 12 10 9 7 5 4 4 4 4 4 5 7 9 10 8 8 15 18 19 26 29 33 40 42 45 45 45 45 46 45 43 40 45 47 45 42 39 35 36 40
15 15 15 15 14 14 13 12 12 10 9 7 5 4 4 4 4 6 9 9 10 11 8 6 10 18 20 23 29 32 38 43 44 42 43 42 40 38 41 42 43 41 38 36 34 34 37
19 19 18 17 16 15 14 13 13 11 10 8 6 4 4 4 5 7 9 9 9 11 11 7 6 6 12 21 20 26 31 31 40 41 38 36 36 35 37 38 40 38 35 35 34 35 34
22 21 19 18 17 16 14 15 14 12 12 9 6 5 5 4 5 7 9 9 9 11 13 13 11 10 7 8 16 20 25 28 29 33 36 32 35 33 33 37 37 35 32 35 32 32 28
22 20 19 18 18 18 17 16 14 13 12 11 7 5 6 5 5 7 8 9 10 10 12 14 14 13 12 9 7 14 20 24 25 24 33 31 34 31 32 36 34 32 32 34 36 34 31
23 21 21 21 20 19 18 16 14 13 13 11 7 6 7 7 6 7 8 9 9 9 12 15 15 14 14 13 11 9 13 18 18 21 26 25 25 27 29 32 31 30 33 33 33 33 31
25 24 23 23 22 20 18 16 13 12 13 10 8 8 8 8 8 8 9 9 9 9 11 14 16 16 16 15 12 9 12 15 20 21 20 19 21 26 29 29 29 30 33 34 33 31 29
23 22 21 20 18 18 17 16 14 12 14 14 13 11 10 10 9 9 9 9 8 11 11 13 15 15 16 17 15 14 17 20 21 22 23 22 20 21 23 24 28 31 30 35 39 34 29
22 21 19 18 18 17 17 17 15 12 13 15 15 15 14 12 11 9 9 9 11 11 11 12 12 13 15 17 17 17 17 17 18 18 19 20 20 20 22 20 20 28 31 32 30 32 30
25 23 22 20 18 17 16 16 16 14 13 15 16 16 15 13 11 10 9 12 13 14 12 11 11 11 13 16 17 17 19 21 20 19 18 20 19 15 16 16 18 20 26 31 33 33 33
27 26 24 22 20 17 15 13 13 15 14 16 18 17 18 16 14 12 14 16 16 15 15 13 12 12 12 13 17 16 19 22 22 21 18 18 17 15 15 17 17 18 21 29 31 32 32
29 28 26 24 22 19 18 16 13 12 13 15 17 18 19 18 18 20 19 19 18 18 19 18 16 16 15 14 13 14 17 19 21 22 22 22 20 18 17 17 17 17 18 20 28 30 30
33 30 27 25 23 21 19 18 16 13 12 12 16 18 19 18 20 21 21 21 22 21 22 22 22 21 20 20 19 16 16 18 20 21 24 24 21 18 15 16 18 19 19 21 22 23 25
33 30 28 27 25 24 23 21 18 16 14 13 13 15 14 14 17 17 19 20 22 22 23 24 24 24 24 23 24 23 23 21 20 21 24 25 24 21 19 18 20 21 22 23 23 24 24
39 35 33 31 29 26 26 25 22 19 16 14 15 20 19 18 18 19 19 20 21 21 20 21 22 23 24 25 24 25 25 24 24 24 23 23 24 26 23 21 22 22 21 20 22 22 23
43 39 36 34 35 36 35 32 28 23 19 17 16 19 19 21 21 17 18 22 23 23 21 19 21 24 25 25 26 26 27 27 25 24 26 26 27 27 25 25 24 22 20 18 19 21 23
47 45 43 39 41 40 40 38 35 31 27 23 23 22 23 21 20 17 17 21 21 22 21 23 25 26 24 24 26 25 26 27 27 29 28 27 26 26 26 24 24 23 15 16 15 16 18
52 51 50 50 45 42 43 42 40 38 33 31 28 24 25 21 22 19 18 19 19 21 20 17 18 19 20 22 23 22 23 24 25 24 25 26 29 28 24 29 31 18 17 17 16 18 19
54 54 57 56 52 42 40 42 43 43 39 36 33 30 28 25 24 20 21 21 20 19 21 20 20 24 24 23 23 22 22 24 20 17 18 22 27 31 30 25 19 20 19 18 20 26 27
59 57 59 57 55 47 39 41 41 43 43 40 38 35 33 32 25 24 24 22 22 23 24 22 25 26 27 28 29 27 16 19 19 24 25 28 29 32 31 30 26 19 16 20 23 22 26
61 60 60 58 53 49 40 40 38 42 47 46 43 39 36 35 28 27 24 23 24 26 25 25 30 30 29 30 27 29 26 23 23 23 27 32 38 37 31 35 26 24 29 30 26 24 31
64 63 58 53 46 40 39 39 40 43 43 48 47 43 41 36 30 28 25 24 26 24 25 30 34 34 37 38 38 38 41 38 42 37 36 39 39 38 40 40 38 32 29 32 35 31 31
62 57 51 47 40 37 36 36 43 42 43 45 47 46 45 42 34 29 24 23 25 28 31 35 37 39 44 46 52 58 59 56 51 53 45 42 33 43 44 41 41 43 42 39 34 36 32